PRB YLIS-YBUD

Flight info

Callsign PRB
Flight time 1h 50m
Altitude 8000
Route YLIS RIDVO GOMOL BN BUGNU SU HAAVI BUD YBUD
Aircraft BE58/L-SFGHRZ/EB2

Departure

Time 2026-04-27 09:25
Airport Lismore Airport (YLIS)

Arrival

Time 2026-04-27 11:16
Airport Bundaberg Airport (YBUD)
Time Latitude Longitude Altitude Speed Heading
2026-04-27 09:12 -28.82380 153.25963 37 ft 0 kts 282°
2026-04-27 09:13 -28.82380 153.25960 37 ft 1 kts 267°
2026-04-27 09:13 -28.82405 153.25950 37 ft 8 kts 192°
2026-04-27 09:14 -28.82462 153.25960 39 ft 9 kts 167°
2026-04-27 09:14 -28.82523 153.25957 39 ft 9 kts 194°
2026-04-27 09:14 -28.82539 153.25891 39 ft 13 kts 290°
2026-04-27 09:14 -28.82513 153.25773 39 ft 15 kts 282°
2026-04-27 09:15 -28.82504 153.25677 37 ft 0 kts 258°
2026-04-27 09:24 -28.82509 153.25657 38 ft 9 kts 251°
2026-04-27 09:24 -28.82514 153.25579 37 ft 11 kts 338°
2026-04-27 09:24 -28.82420 153.25510 39 ft 21 kts 326°
2026-04-27 09:24 -28.82385 153.25519 39 ft 6 kts 143°
2026-04-27 09:25 -28.82389 153.25521 39 ft 0 kts 154°
2026-04-27 09:25 -28.82569 153.25607 36 ft 78 kts 158°
2026-04-27 09:25 -28.83280 153.25954 319 ft 126 kts 159°
2026-04-27 09:25 -28.84131 153.26321 964 ft 134 kts 168°
2026-04-27 09:26 -28.85017 153.26108 1575 ft 142 kts 217°
2026-04-27 09:26 -28.85495 153.25088 2230 ft 151 kts 257°
2026-04-27 09:26 -28.85312 153.23936 2945 ft 145 kts 300°
2026-04-27 09:26 -28.84613 153.23228 3494 ft 141 kts 337°
2026-04-27 09:27 -28.83552 153.22997 3478 ft 167 kts 10°
2026-04-27 09:27 -28.82442 153.23446 3477 ft 174 kts 40°
2026-04-27 09:27 -28.81697 153.24438 3803 ft 152 kts 74°
2026-04-27 09:27 -28.81506 153.25484 4477 ft 126 kts 79°
2026-04-27 09:28 -28.80875 153.26181 5060 ft 133 kts 32°
2026-04-27 09:28 -28.80006 153.26573 5514 ft 136 kts 30°
2026-04-27 09:28 -28.79114 153.26951 5959 ft 138 kts 26°
2026-04-27 09:28 -28.78201 153.27305 6416 ft 139 kts 25°
2026-04-27 09:29 -28.77274 153.27659 6810 ft 142 kts 24°
2026-04-27 09:29 -28.76342 153.28011 7283 ft 140 kts 24°
2026-04-27 09:29 -28.75418 153.28362 7711 ft 140 kts 24°
2026-04-27 09:29 -28.74482 153.28720 8000 ft 150 kts 25°
2026-04-27 09:30 -28.73417 153.29134 8017 ft 171 kts 24°
2026-04-27 09:30 -28.72249 153.29575 8015 ft 182 kts 23°
2026-04-27 09:30 -28.71029 153.30034 8015 ft 184 kts 23°
2026-04-27 09:30 -28.69831 153.30483 8013 ft 179 kts 23°
2026-04-27 09:31 -28.68658 153.30924 8010 ft 176 kts 23°
2026-04-27 09:31 -28.67514 153.31358 8008 ft 175 kts 23°
2026-04-27 09:31 -28.66364 153.31794 8005 ft 174 kts 23°
2026-04-27 09:31 -28.65214 153.32229 8003 ft 174 kts 23°
2026-04-27 09:32 -28.64066 153.32663 8003 ft 174 kts 23°
2026-04-27 09:32 -28.62920 153.33096 8003 ft 174 kts 23°
2026-04-27 09:32 -28.61772 153.33530 8002 ft 174 kts 23°
2026-04-27 09:32 -28.60625 153.33964 7999 ft 174 kts 23°
2026-04-27 09:33 -28.59482 153.34399 7998 ft 173 kts 22°
2026-04-27 09:33 -28.58336 153.34826 7998 ft 174 kts 23°
2026-04-27 09:33 -28.57191 153.35259 8000 ft 173 kts 23°
2026-04-27 09:33 -28.56049 153.35689 8005 ft 172 kts 22°
2026-04-27 09:34 -28.54909 153.36123 8004 ft 173 kts 23°
2026-04-27 09:34 -28.53766 153.36558 8004 ft 174 kts 23°
2026-04-27 09:34 -28.52615 153.36988 8003 ft 174 kts 23°
2026-04-27 09:34 -28.51472 153.37413 8018 ft 172 kts 23°
2026-04-27 09:35 -28.50328 153.37848 8016 ft 173 kts 24°
2026-04-27 09:35 -28.49185 153.38283 8019 ft 173 kts 23°
2026-04-27 09:35 -28.48042 153.38716 8021 ft 174 kts 23°
2026-04-27 09:35 -28.46905 153.39140 8024 ft 174 kts 23°
2026-04-27 09:36 -28.45759 153.39573 8021 ft 173 kts 24°
2026-04-27 09:36 -28.44612 153.40009 8015 ft 174 kts 23°
2026-04-27 09:36 -28.43470 153.40433 8016 ft 173 kts 23°
2026-04-27 09:36 -28.42334 153.40864 8014 ft 172 kts 25°
2026-04-27 09:37 -28.41196 153.41292 8016 ft 172 kts 24°
2026-04-27 09:37 -28.40058 153.41717 8012 ft 172 kts 25°
2026-04-27 09:37 -28.38926 153.42154 8013 ft 172 kts 24°
2026-04-27 09:37 -28.37786 153.42572 8010 ft 172 kts 23°
2026-04-27 09:38 -28.36651 153.42999 8010 ft 172 kts 25°
2026-04-27 09:38 -28.35516 153.43427 8010 ft 172 kts 24°
2026-04-27 09:38 -28.34380 153.43856 8010 ft 172 kts 24°
2026-04-27 09:38 -28.33243 153.44283 8010 ft 172 kts 24°
2026-04-27 09:39 -28.32104 153.44711 8010 ft 172 kts 24°
2026-04-27 09:39 -28.30964 153.45139 8010 ft 173 kts 24°
2026-04-27 09:39 -28.29823 153.45567 8010 ft 173 kts 24°
2026-04-27 09:39 -28.28683 153.45996 8010 ft 172 kts 23°
2026-04-27 09:40 -28.27543 153.46424 8006 ft 172 kts 23°
2026-04-27 09:40 -28.26402 153.46852 8011 ft 173 kts 24°
2026-04-27 09:40 -28.25260 153.47281 8012 ft 173 kts 24°
2026-04-27 09:40 -28.24118 153.47708 8011 ft 172 kts 24°
2026-04-27 09:41 -28.22973 153.48138 8017 ft 176 kts 23°
2026-04-27 09:41 -28.21791 153.48584 8023 ft 183 kts 23°
2026-04-27 09:41 -28.20557 153.49051 8024 ft 190 kts 25°
2026-04-27 09:41 -28.19292 153.49524 8024 ft 192 kts 24°
2026-04-27 09:42 -28.18023 153.50000 8022 ft 193 kts 24°
2026-04-27 09:42 -28.16697 153.50287 8017 ft 198 kts
2026-04-27 09:42 -28.15329 153.50030 8011 ft 200 kts 349°
2026-04-27 09:42 -28.13966 153.49679 8011 ft 200 kts 351°
2026-04-27 09:43 -28.12608 153.49344 8017 ft 199 kts 350°
2026-04-27 09:43 -28.11267 153.49006 8011 ft 200 kts 351°
2026-04-27 09:43 -28.09898 153.48661 8013 ft 201 kts 351°
2026-04-27 09:43 -28.08536 153.48319 8012 ft 199 kts 351°
2026-04-27 09:44 -28.07187 153.47980 8008 ft 198 kts 351°
2026-04-27 09:44 -28.05839 153.47642 8007 ft 197 kts 350°
2026-04-27 09:44 -28.04501 153.47307 8006 ft 197 kts 350°
2026-04-27 09:44 -28.03162 153.46970 8007 ft 196 kts 350°
2026-04-27 09:45 -28.01829 153.46636 8005 ft 196 kts 350°
2026-04-27 09:45 -28.00502 153.46304 7999 ft 195 kts 350°
2026-04-27 09:45 -27.99175 153.45970 8002 ft 196 kts 350°
2026-04-27 09:45 -27.97840 153.45636 7998 ft 195 kts 350°
2026-04-27 09:46 -27.96512 153.45303 8001 ft 195 kts 351°
2026-04-27 09:46 -27.95184 153.44970 7999 ft 196 kts 351°
2026-04-27 09:46 -27.93853 153.44637 8002 ft 195 kts 350°
2026-04-27 09:46 -27.92543 153.44308 8000 ft 195 kts 350°
2026-04-27 09:47 -27.91211 153.43975 7999 ft 196 kts 351°
2026-04-27 09:47 -27.89885 153.43644 7993 ft 195 kts 351°
2026-04-27 09:47 -27.88568 153.43315 7999 ft 192 kts 350°
2026-04-27 09:47 -27.87267 153.42991 7998 ft 192 kts 350°
2026-04-27 09:48 -27.85962 153.42663 7998 ft 192 kts 350°
2026-04-27 09:48 -27.84657 153.42336 7996 ft 192 kts 350°
2026-04-27 09:48 -27.83350 153.42009 7997 ft 192 kts 350°
2026-04-27 09:48 -27.82048 153.41683 7997 ft 192 kts 350°
2026-04-27 09:49 -27.80740 153.41357 7995 ft 192 kts 350°
2026-04-27 09:49 -27.79432 153.41030 7998 ft 192 kts 350°
2026-04-27 09:49 -27.78127 153.40704 7993 ft 192 kts 350°
2026-04-27 09:49 -27.76821 153.40379 7988 ft 192 kts 350°
2026-04-27 09:50 -27.75517 153.40052 7995 ft 192 kts 350°
2026-04-27 09:50 -27.74212 153.39728 7995 ft 192 kts 350°
2026-04-27 09:50 -27.72911 153.39403 7994 ft 192 kts 350°
2026-04-27 09:50 -27.71627 153.39082 7995 ft 192 kts 350°
2026-04-27 09:51 -27.70327 153.38758 7995 ft 191 kts 350°
2026-04-27 09:51 -27.69024 153.38434 7995 ft 192 kts 350°
2026-04-27 09:51 -27.67721 153.38110 7996 ft 191 kts 350°
2026-04-27 09:51 -27.66423 153.37785 7995 ft 191 kts 350°
2026-04-27 09:52 -27.65124 153.37461 7994 ft 191 kts 351°
2026-04-27 09:52 -27.63827 153.37139 7997 ft 191 kts 351°
2026-04-27 09:52 -27.62531 153.36816 7997 ft 191 kts 350°
2026-04-27 09:52 -27.61233 153.36496 7996 ft 191 kts 351°
2026-04-27 09:53 -27.59939 153.36173 8000 ft 190 kts 350°
2026-04-27 09:53 -27.58649 153.35848 8000 ft 190 kts 349°
2026-04-27 09:53 -27.57357 153.35520 7996 ft 190 kts 350°
2026-04-27 09:53 -27.56062 153.35200 7992 ft 191 kts 350°
2026-04-27 09:54 -27.54767 153.34880 7993 ft 191 kts 350°
2026-04-27 09:54 -27.53469 153.34558 7993 ft 191 kts 350°
2026-04-27 09:54 -27.52173 153.34236 7990 ft 191 kts 350°
2026-04-27 09:54 -27.50875 153.33913 7992 ft 191 kts 350°
2026-04-27 09:55 -27.49579 153.33592 7993 ft 191 kts 350°
2026-04-27 09:55 -27.48282 153.33269 7993 ft 191 kts 350°
2026-04-27 09:55 -27.45686 153.32625 7993 ft 191 kts 350°
2026-04-27 09:56 -27.44392 153.32304 7993 ft 190 kts 350°
2026-04-27 09:56 -27.43100 153.31984 7990 ft 190 kts 350°
2026-04-27 09:56 -27.41824 153.31668 8003 ft 190 kts 350°
2026-04-27 09:56 -27.40529 153.31345 8003 ft 191 kts 350°
2026-04-27 09:57 -27.39234 153.31024 8008 ft 190 kts 351°
2026-04-27 09:57 -27.37937 153.30695 8008 ft 191 kts 351°
2026-04-27 09:57 -27.36638 153.30385 8012 ft 191 kts 352°
2026-04-27 09:57 -27.35335 153.30062 8004 ft 191 kts 351°
2026-04-27 09:58 -27.34043 153.29743 8004 ft 190 kts 351°
2026-04-27 09:58 -27.32751 153.29419 8003 ft 190 kts 351°
2026-04-27 09:58 -27.31456 153.29096 8004 ft 191 kts 351°
2026-04-27 09:58 -27.30158 153.28776 8004 ft 191 kts 351°
2026-04-27 09:59 -27.29280 153.28559 8001 ft 190 kts 351°
2026-04-27 09:59 -27.27990 153.28240 8003 ft 190 kts 351°
2026-04-27 09:59 -27.26701 153.27921 8003 ft 190 kts 351°
2026-04-27 09:59 -27.25429 153.27607 8003 ft 189 kts 351°
2026-04-27 10:00 -27.24142 153.27273 8004 ft 189 kts 350°
2026-04-27 10:00 -27.22858 153.26936 8003 ft 190 kts 350°
2026-04-27 10:00 -27.21572 153.26601 8001 ft 190 kts 351°
2026-04-27 10:00 -27.20285 153.26260 7998 ft 190 kts 350°
2026-04-27 10:01 -27.18993 153.25925 8002 ft 190 kts 350°
2026-04-27 10:01 -27.17705 153.25585 8001 ft 190 kts 350°
2026-04-27 10:01 -27.16416 153.25244 8001 ft 190 kts 350°
2026-04-27 10:01 -27.15129 153.24907 8003 ft 190 kts 351°
2026-04-27 10:02 -27.13829 153.24675 8002 ft 189 kts 356°
2026-04-27 10:02 -27.12525 153.24425 8001 ft 190 kts 352°
2026-04-27 10:02 -27.11230 153.24107 8000 ft 191 kts 351°
2026-04-27 10:02 -27.09933 153.23782 8001 ft 191 kts 352°
2026-04-27 10:03 -27.08632 153.23462 8000 ft 191 kts 351°
2026-04-27 10:03 -27.07330 153.23139 7999 ft 192 kts 352°
2026-04-27 10:03 -27.06035 153.22819 7993 ft 186 kts 352°
2026-04-27 10:03 -27.04794 153.22514 7990 ft 179 kts 351°
2026-04-27 10:04 -27.03602 153.22219 7991 ft 172 kts 352°
2026-04-27 10:04 -27.02832 153.22029 7991 ft 169 kts 352°
2026-04-27 10:04 -27.01704 153.21751 7993 ft 164 kts 352°
2026-04-27 10:04 -27.00245 153.21392 7991 ft 161 kts 352°
2026-04-27 10:05 -26.99154 153.21123 7987 ft 160 kts 352°
2026-04-27 10:05 -26.98422 153.20944 7985 ft 159 kts 352°
2026-04-27 10:05 -26.96996 153.20594 7988 ft 158 kts 352°
2026-04-27 10:05 -26.96270 153.20415 7986 ft 158 kts 353°
2026-04-27 10:06 -26.95205 153.20153 7989 ft 160 kts 352°
2026-04-27 10:06 -26.94114 153.19885 7992 ft 161 kts 352°
2026-04-27 10:06 -26.93019 153.19617 7995 ft 162 kts 352°
2026-04-27 10:06 -26.91909 153.19344 7999 ft 164 kts 352°
2026-04-27 10:07 -26.90793 153.19069 8003 ft 164 kts 352°
2026-04-27 10:07 -26.89677 153.18796 8006 ft 164 kts 352°
2026-04-27 10:07 -26.88557 153.18520 8005 ft 165 kts 352°
2026-04-27 10:07 -26.87437 153.18245 8002 ft 164 kts 352°
2026-04-27 10:08 -26.86322 153.17972 8001 ft 164 kts 353°
2026-04-27 10:08 -26.85205 153.17687 7998 ft 165 kts 348°
2026-04-27 10:08 -26.84129 153.17307 7989 ft 160 kts 347°
2026-04-27 10:08 -26.83034 153.16941 7785 ft 168 kts 347°
2026-04-27 10:09 -26.81897 153.16558 7577 ft 173 kts 348°
2026-04-27 10:09 -26.80729 153.16161 7366 ft 176 kts 347°
2026-04-27 10:09 -26.79555 153.15761 7158 ft 177 kts 348°
2026-04-27 10:09 -26.78377 153.15359 6947 ft 177 kts 347°
2026-04-27 10:10 -26.77192 153.14954 6723 ft 179 kts 348°
2026-04-27 10:10 -26.75997 153.14580 6511 ft 178 kts 351°
2026-04-27 10:10 -26.74802 153.14231 6284 ft 178 kts 349°
2026-04-27 10:10 -26.73609 153.13826 6057 ft 179 kts 347°
2026-04-27 10:11 -26.72439 153.13419 5995 ft 171 kts 347°
2026-04-27 10:11 -26.71328 153.13031 5984 ft 164 kts 347°
2026-04-27 10:11 -26.70254 153.12659 5979 ft 159 kts 349°
2026-04-27 10:11 -26.69204 153.12297 5935 ft 159 kts 349°
2026-04-27 10:12 -26.68129 153.11928 5808 ft 164 kts 348°
2026-04-27 10:12 -26.67035 153.11539 5686 ft 166 kts 348°
2026-04-27 10:12 -26.65927 153.11146 5556 ft 167 kts 348°
2026-04-27 10:12 -26.64821 153.10750 5436 ft 167 kts 348°
2026-04-27 10:13 -26.63725 153.10357 5310 ft 168 kts 348°
2026-04-27 10:13 -26.62611 153.09955 5192 ft 168 kts 348°
2026-04-27 10:13 -26.61501 153.09557 5072 ft 168 kts 348°
2026-04-27 10:13 -26.60381 153.09161 4948 ft 169 kts 348°
2026-04-27 10:14 -26.59260 153.08767 4819 ft 168 kts 353°
2026-04-27 10:14 -26.58197 153.08912 4700 ft 147 kts 43°
2026-04-27 10:14 -26.57478 153.09669 4584 ft 140 kts 59°
2026-04-27 10:14 -26.56961 153.10564 4463 ft 136 kts 68°
2026-04-27 10:15 -26.56456 153.11461 4335 ft 136 kts 66°
2026-04-27 10:15 -26.55935 153.12346 4215 ft 137 kts 65°
2026-04-27 10:15 -26.55414 153.13239 4084 ft 137 kts 65°
2026-04-27 10:15 -26.54979 153.14169 3963 ft 130 kts 89°
2026-04-27 10:16 -26.55289 153.15015 3862 ft 122 kts 144°
2026-04-27 10:16 -26.56141 153.15070 3767 ft 138 kts 198°
2026-04-27 10:16 -26.56744 153.14186 3665 ft 158 kts 252°
2026-04-27 10:16 -26.56827 153.12945 3551 ft 158 kts 246°
2026-04-27 10:17 -26.57325 153.11930 3435 ft 149 kts 224°
2026-04-27 10:17 -26.57962 153.11022 3318 ft 149 kts 222°
2026-04-27 10:17 -26.58625 153.10131 3200 ft 149 kts 219°
2026-04-27 10:17 -26.59295 153.09236 3085 ft 150 kts 220°
2026-04-27 10:18 -26.59958 153.08354 2994 ft 145 kts 220°
2026-04-27 10:18 -26.60614 153.07536 2982 ft 135 kts 206°
2026-04-27 10:18 -26.61414 153.07382 2982 ft 113 kts 157°
2026-04-27 10:18 -26.62147 153.07656 2981 ft 110 kts 156°
2026-04-27 10:19 -26.62904 153.07732 2985 ft 120 kts 194°
2026-04-27 10:19 -26.63406 153.06926 2997 ft 145 kts 257°
2026-04-27 10:19 -26.63053 153.05861 3002 ft 154 kts 319°
2026-04-27 10:19 -26.62107 153.05509 3003 ft 138 kts 21°
2026-04-27 10:20 -26.61380 153.06031 2998 ft 122 kts 59°
2026-04-27 10:20 -26.60811 153.06730 3000 ft 120 kts 64°
2026-04-27 10:20 -26.60329 153.07493 2998 ft 120 kts 67°
2026-04-27 10:20 -26.59924 153.08287 2999 ft 117 kts 72°
2026-04-27 10:21 -26.59531 153.09082 2997 ft 117 kts 72°
2026-04-27 10:21 -26.59071 153.09847 3000 ft 123 kts 60°
2026-04-27 10:21 -26.58501 153.10567 3000 ft 123 kts 61°
2026-04-27 10:21 -26.57958 153.11305 2997 ft 123 kts 62°
2026-04-27 10:22 -26.57415 153.12035 2996 ft 122 kts 61°
2026-04-27 10:22 -26.56842 153.12742 2993 ft 123 kts 58°
2026-04-27 10:22 -26.56251 153.13443 2987 ft 124 kts 58°
2026-04-27 10:22 -26.55658 153.14157 2990 ft 126 kts 58°
2026-04-27 10:23 -26.55068 153.14875 2990 ft 125 kts 58°
2026-04-27 10:23 -26.54458 153.15606 3000 ft 132 kts 59°
2026-04-27 10:23 -26.53812 153.16368 2999 ft 138 kts 58°
2026-04-27 10:23 -26.53151 153.17150 3000 ft 139 kts 58°
2026-04-27 10:24 -26.52499 153.17940 2997 ft 138 kts 59°
2026-04-27 10:24 -26.51868 153.18743 2999 ft 138 kts 59°
2026-04-27 10:24 -26.51217 153.19568 2888 ft 145 kts 59°
2026-04-27 10:24 -26.50537 153.20414 2742 ft 147 kts 59°
2026-04-27 10:25 -26.49856 153.21263 2596 ft 148 kts 54°
2026-04-27 10:25 -26.48866 153.21709 2439 ft 171 kts
2026-04-27 10:25 -26.47747 153.21193 2284 ft 182 kts 316°
2026-04-27 10:25 -26.47208 153.19959 2133 ft 176 kts 268°
2026-04-27 10:26 -26.47524 153.18755 1975 ft 152 kts 219°
2026-04-27 10:26 -26.48312 153.18069 1826 ft 142 kts 205°
2026-04-27 10:26 -26.49118 153.17467 1722 ft 139 kts 204°
2026-04-27 10:26 -26.49940 153.16878 1573 ft 142 kts 203°
2026-04-27 10:27 -26.50765 153.16264 1417 ft 142 kts 205°
2026-04-27 10:27 -26.51580 153.15651 1266 ft 141 kts 204°
2026-04-27 10:27 -26.52389 153.15030 1109 ft 140 kts 205°
2026-04-27 10:27 -26.53176 153.14392 969 ft 140 kts 207°
2026-04-27 10:28 -26.53963 153.13759 822 ft 138 kts 207°
2026-04-27 10:28 -26.54741 153.13171 781 ft 132 kts 209°
2026-04-27 10:28 -26.55475 153.12615 776 ft 123 kts 211°
2026-04-27 10:28 -26.56206 153.12164 777 ft 120 kts 210°
2026-04-27 10:29 -26.56884 153.11651 842 ft 114 kts 217°
2026-04-27 10:29 -26.57475 153.11075 874 ft 114 kts 221°
2026-04-27 10:29 -26.58062 153.10468 879 ft 118 kts 221°
2026-04-27 10:29 -26.58652 153.09819 857 ft 122 kts 223°
2026-04-27 10:30 -26.59240 153.09192 931 ft 115 kts 221°
2026-04-27 10:30 -26.59848 153.08556 829 ft 124 kts 223°
2026-04-27 10:30 -26.60453 153.07881 860 ft 123 kts 224°
2026-04-27 10:30 -26.60800 153.07066 944 ft 123 kts 273°
2026-04-27 10:31 -26.60245 153.06289 783 ft 144 kts 322°
2026-04-27 10:31 -26.59376 153.05696 657 ft 147 kts 329°
2026-04-27 10:31 -26.58496 153.05242 628 ft 131 kts 340°
2026-04-27 10:31 -26.57648 153.05371 681 ft 127 kts 39°
2026-04-27 10:32 -26.57035 153.06069 662 ft 107 kts 81°
2026-04-27 10:32 -26.57330 153.06669 436 ft 91 kts 150°
2026-04-27 10:32 -26.57838 153.07090 222 ft 92 kts 148°
2026-04-27 10:32 -26.58365 153.07509 54 ft 93 kts 150°
2026-04-27 10:33 -26.58795 153.07868 18 ft 59 kts 141°
2026-04-27 10:33 -26.59269 153.08270 108 ft 115 kts 149°
2026-04-27 10:33 -26.59949 153.08853 717 ft 128 kts 147°
2026-04-27 10:33 -26.60615 153.09518 1462 ft 126 kts 139°
2026-04-27 10:34 -26.61202 153.10226 2153 ft 125 kts 120°
2026-04-27 10:34 -26.61249 153.11191 2800 ft 129 kts 79°
2026-04-27 10:34 -26.60640 153.11937 3385 ft 138 kts 36°
2026-04-27 10:34 -26.59658 153.12020 3911 ft 151 kts 352°
2026-04-27 10:35 -26.58611 153.11517 4001 ft 174 kts 353°
2026-04-27 10:35 -26.57417 153.11489 4001 ft 173 kts 12°
2026-04-27 10:35 -26.56202 153.11571 4003 ft 176 kts 11°
2026-04-27 10:35 -26.54968 153.11653 4000 ft 178 kts 11°
2026-04-27 10:36 -26.53729 153.11739 4002 ft 179 kts 11°
2026-04-27 10:36 -26.52479 153.11812 4001 ft 180 kts 11°
2026-04-27 10:36 -26.51230 153.11883 4000 ft 179 kts 11°
2026-04-27 10:36 -26.49981 153.11956 3989 ft 180 kts 11°
2026-04-27 10:37 -26.48740 153.12024 3995 ft 180 kts 11°
2026-04-27 10:37 -26.47483 153.12085 3998 ft 181 kts 11°
2026-04-27 10:37 -26.46224 153.12152 3998 ft 182 kts 11°
2026-04-27 10:37 -26.44964 153.12225 3996 ft 181 kts 12°
2026-04-27 10:38 -26.43708 153.12285 3994 ft 181 kts 11°
2026-04-27 10:38 -26.42455 153.12351 3992 ft 180 kts 11°
2026-04-27 10:38 -26.41206 153.12441 3992 ft 178 kts 16°
2026-04-27 10:38 -26.39989 153.12678 3995 ft 176 kts 22°
2026-04-27 10:39 -26.38807 153.13016 3989 ft 175 kts 24°
2026-04-27 10:39 -26.37635 153.13370 3982 ft 174 kts 24°
2026-04-27 10:39 -26.36458 153.13727 3978 ft 176 kts 24°
2026-04-27 10:39 -26.35285 153.14080 4062 ft 170 kts 24°
2026-04-27 10:40 -26.34173 153.14402 4535 ft 158 kts 24°
2026-04-27 10:40 -26.33156 153.14675 5131 ft 149 kts 20°
2026-04-27 10:40 -26.32089 153.14538 5536 ft 159 kts 351°
2026-04-27 10:40 -26.31019 153.14221 5952 ft 160 kts 353°
2026-04-27 10:41 -26.29943 153.13937 6371 ft 159 kts 354°
2026-04-27 10:41 -26.28861 153.13649 6716 ft 160 kts 352°
2026-04-27 10:41 -26.27776 153.13360 7045 ft 160 kts 353°
2026-04-27 10:41 -26.26696 153.13073 7345 ft 160 kts 354°
2026-04-27 10:42 -26.25636 153.12791 7653 ft 157 kts 353°
2026-04-27 10:42 -26.24551 153.12505 7880 ft 159 kts 353°
2026-04-27 10:42 -26.23469 153.12219 7975 ft 167 kts 352°
2026-04-27 10:42 -26.22305 153.11910 7988 ft 175 kts 352°
2026-04-27 10:43 -26.21098 153.11592 7982 ft 180 kts 352°
2026-04-27 10:43 -26.19871 153.11262 7979 ft 182 kts 352°
2026-04-27 10:43 -26.18630 153.10934 7980 ft 183 kts 352°
2026-04-27 10:43 -26.17387 153.10607 7979 ft 184 kts 352°
2026-04-27 10:44 -26.16141 153.10277 7980 ft 184 kts 351°
2026-04-27 10:44 -26.14894 153.09949 7981 ft 184 kts 352°
2026-04-27 10:44 -26.13638 153.09617 7977 ft 186 kts 351°
2026-04-27 10:44 -26.12381 153.09285 7979 ft 185 kts 352°
2026-04-27 10:45 -26.11126 153.08953 7979 ft 186 kts 351°
2026-04-27 10:45 -26.09864 153.08620 7978 ft 186 kts 352°
2026-04-27 10:45 -26.08609 153.08289 7976 ft 185 kts 352°
2026-04-27 10:45 -26.07374 153.07964 7979 ft 185 kts 351°
2026-04-27 10:46 -26.06119 153.07632 7977 ft 185 kts 352°
2026-04-27 10:46 -26.04867 153.07301 7976 ft 185 kts 352°
2026-04-27 10:46 -26.03615 153.06970 7976 ft 185 kts 352°
2026-04-27 10:46 -26.02364 153.06639 7975 ft 184 kts 352°
2026-04-27 10:47 -26.01119 153.06314 7975 ft 184 kts 351°
2026-04-27 10:47 -25.99875 153.05986 7976 ft 184 kts 352°
2026-04-27 10:47 -25.98629 153.05657 7974 ft 184 kts 352°
2026-04-27 10:47 -25.97384 153.05329 7966 ft 184 kts 352°
2026-04-27 10:48 -25.96141 153.05002 7967 ft 184 kts 352°
2026-04-27 10:48 -25.94899 153.04674 7964 ft 182 kts 352°
2026-04-27 10:48 -25.93670 153.04350 7961 ft 181 kts 352°
2026-04-27 10:48 -25.92862 153.04138 7959 ft 180 kts 352°
2026-04-27 10:49 -25.91233 153.03709 7956 ft 180 kts 352°
2026-04-27 10:49 -25.90427 153.03497 7955 ft 180 kts 352°
2026-04-27 10:49 -25.89212 153.03178 7955 ft 179 kts 352°
2026-04-27 10:49 -25.87995 153.02858 7955 ft 180 kts 352°
2026-04-27 10:50 -25.86777 153.02538 7954 ft 180 kts 352°
2026-04-27 10:50 -25.85559 153.02217 7952 ft 180 kts 352°
2026-04-27 10:50 -25.84340 153.01897 7952 ft 180 kts 352°
2026-04-27 10:50 -25.83120 153.01584 7951 ft 180 kts 352°
2026-04-27 10:51 -25.81898 153.01266 7950 ft 180 kts 352°
2026-04-27 10:51 -25.80679 153.00942 7951 ft 180 kts 352°
2026-04-27 10:51 -25.79461 153.00621 7955 ft 180 kts 352°
2026-04-27 10:51 -25.78241 153.00299 7954 ft 180 kts 352°
2026-04-27 10:52 -25.77023 152.99980 7953 ft 180 kts 352°
2026-04-27 10:52 -25.75803 152.99661 7953 ft 180 kts 352°
2026-04-27 10:52 -25.74585 152.99340 7951 ft 180 kts 352°
2026-04-27 10:52 -25.73365 152.99020 7951 ft 180 kts 352°
2026-04-27 10:53 -25.72142 152.98699 7952 ft 183 kts 352°
2026-04-27 10:53 -25.69631 152.98043 7962 ft 186 kts 352°
2026-04-27 10:53 -25.68365 152.97711 7970 ft 187 kts 352°
2026-04-27 10:54 -25.67097 152.97378 7969 ft 187 kts 352°
2026-04-27 10:54 -25.65831 152.97046 7969 ft 187 kts 352°
2026-04-27 10:54 -25.64562 152.96713 7969 ft 187 kts 352°
2026-04-27 10:54 -25.63292 152.96382 7969 ft 187 kts 352°
2026-04-27 10:55 -25.62038 152.96054 7964 ft 188 kts 352°
2026-04-27 10:55 -25.60767 152.95720 7963 ft 187 kts 352°
2026-04-27 10:55 -25.59497 152.95387 7963 ft 187 kts 352°
2026-04-27 10:55 -25.58227 152.95057 7962 ft 188 kts 352°
2026-04-27 10:56 -25.56954 152.94723 7962 ft 188 kts 352°
2026-04-27 10:56 -25.55681 152.94390 7961 ft 188 kts 352°
2026-04-27 10:56 -25.54409 152.94058 7961 ft 188 kts 352°
2026-04-27 10:56 -25.53138 152.93725 7961 ft 188 kts 352°
2026-04-27 10:57 -25.51866 152.93391 7961 ft 188 kts 352°
2026-04-27 10:57 -25.50592 152.93057 7955 ft 188 kts 352°
2026-04-27 10:57 -25.49319 152.92725 7955 ft 188 kts 352°
2026-04-27 10:57 -25.48045 152.92391 7955 ft 188 kts 352°
2026-04-27 10:58 -25.46773 152.92060 7955 ft 188 kts 352°
2026-04-27 10:58 -25.45500 152.91729 7954 ft 188 kts 352°
2026-04-27 10:58 -25.44227 152.91396 7954 ft 188 kts 352°
2026-04-27 10:58 -25.42953 152.91065 7953 ft 188 kts 352°
2026-04-27 10:59 -25.41681 152.90732 7952 ft 188 kts 352°
2026-04-27 10:59 -25.40409 152.90400 7952 ft 188 kts 352°
2026-04-27 10:59 -25.39136 152.90068 7953 ft 188 kts 352°
2026-04-27 11:00 -25.36598 152.89406 7946 ft 189 kts 352°
2026-04-27 11:00 -25.35317 152.89069 7947 ft 189 kts 352°
2026-04-27 11:00 -25.34033 152.88735 7946 ft 189 kts 352°
2026-04-27 11:00 -25.32774 152.88309 7938 ft 193 kts 336°
2026-04-27 11:01 -25.31686 152.87431 7943 ft 194 kts 326°
2026-04-27 11:01 -25.30625 152.86507 7940 ft 196 kts 319°
2026-04-27 11:01 -25.29733 152.85370 7866 ft 195 kts 310°
2026-04-27 11:01 -25.28912 152.84196 7738 ft 191 kts 310°
2026-04-27 11:02 -25.28095 152.83052 7611 ft 189 kts 310°
2026-04-27 11:02 -25.27278 152.81932 7482 ft 185 kts 311°
2026-04-27 11:02 -25.26473 152.80833 7354 ft 183 kts 311°
2026-04-27 11:02 -25.25678 152.79743 7229 ft 182 kts 311°
2026-04-27 11:03 -25.24881 152.78654 7077 ft 183 kts 311°
2026-04-27 11:03 -25.24079 152.77558 6913 ft 184 kts 311°
2026-04-27 11:03 -25.23272 152.76453 6743 ft 185 kts 311°
2026-04-27 11:03 -25.22471 152.75358 6617 ft 181 kts 311°
2026-04-27 11:04 -25.21687 152.74283 6486 ft 179 kts 311°
2026-04-27 11:04 -25.20906 152.73214 6359 ft 178 kts 311°
2026-04-27 11:04 -25.20128 152.72152 6226 ft 178 kts 311°
2026-04-27 11:04 -25.19351 152.71091 6098 ft 178 kts 311°
2026-04-27 11:05 -25.18584 152.70040 5965 ft 178 kts 311°
2026-04-27 11:05 -25.17799 152.68969 5792 ft 180 kts 311°
2026-04-27 11:05 -25.17006 152.67885 5620 ft 182 kts 311°
2026-04-27 11:05 -25.16208 152.66794 5449 ft 183 kts 311°
2026-04-27 11:06 -25.15405 152.65699 5279 ft 184 kts 311°
2026-04-27 11:06 -25.14604 152.64604 5111 ft 184 kts 311°
2026-04-27 11:06 -25.13798 152.63507 4940 ft 184 kts 311°
2026-04-27 11:06 -25.12988 152.62401 4766 ft 187 kts 310°
2026-04-27 11:07 -25.12168 152.61282 4594 ft 188 kts 311°
2026-04-27 11:07 -25.11339 152.60153 4418 ft 190 kts 310°
2026-04-27 11:07 -25.10506 152.59017 4246 ft 190 kts 310°
2026-04-27 11:07 -25.09678 152.57885 4074 ft 190 kts 310°
2026-04-27 11:08 -25.08847 152.56749 3900 ft 191 kts 310°
2026-04-27 11:08 -25.08014 152.55615 3727 ft 189 kts 310°
2026-04-27 11:08 -25.07189 152.54494 3553 ft 188 kts 310°
2026-04-27 11:08 -25.06371 152.53376 3381 ft 187 kts 310°
2026-04-27 11:09 -25.05547 152.52255 3206 ft 188 kts 310°
2026-04-27 11:09 -25.04714 152.51138 3033 ft 189 kts 311°
2026-04-27 11:09 -25.03874 152.50034 2855 ft 187 kts 311°
2026-04-27 11:09 -25.03029 152.48949 2682 ft 186 kts 311°
2026-04-27 11:10 -25.02200 152.47886 2643 ft 179 kts 311°
2026-04-27 11:10 -25.01407 152.46863 2638 ft 172 kts 311°
2026-04-27 11:10 -25.00642 152.45878 2636 ft 166 kts 311°
2026-04-27 11:10 -24.99899 152.44918 2605 ft 165 kts 311°
2026-04-27 11:11 -24.99137 152.43935 2455 ft 171 kts 311°
2026-04-27 11:11 -24.98369 152.42944 2310 ft 173 kts 311°
2026-04-27 11:11 -24.97581 152.41936 2163 ft 173 kts 311°
2026-04-27 11:11 -24.96788 152.40939 2018 ft 173 kts 311°
2026-04-27 11:12 -24.95984 152.39946 1840 ft 174 kts 311°
2026-04-27 11:12 -24.95169 152.38946 1639 ft 176 kts 312°
2026-04-27 11:12 -24.94374 152.37930 1443 ft 174 kts 308°
2026-04-27 11:12 -24.93632 152.36923 1250 ft 164 kts 308°
2026-04-27 11:13 -24.92905 152.35968 1034 ft 161 kts 308°
2026-04-27 11:13 -24.92283 152.34963 810 ft 157 kts 300°
2026-04-27 11:13 -24.91737 152.33950 678 ft 149 kts 300°
2026-04-27 11:13 -24.91319 152.32960 741 ft 140 kts 277°
2026-04-27 11:14 -24.91372 152.31926 714 ft 135 kts 240°
2026-04-27 11:14 -24.91983 152.31197 702 ft 122 kts 197°
2026-04-27 11:14 -24.92648 152.31484 747 ft 114 kts 110°
2026-04-27 11:14 -24.92479 152.32321 615 ft 107 kts 68°
2026-04-27 11:15 -24.92029 152.32929 397 ft 100 kts 40°
2026-04-27 11:15 -24.91382 152.32862 177 ft 107 kts 327°
2026-04-27 11:15 -24.90839 152.32487 107 ft 75 kts 328°
2026-04-27 11:15 -24.90472 152.32239 105 ft 51 kts 326°
2026-04-27 11:16 -24.90263 152.32130 102 ft 18 kts 44°
2026-04-27 11:16 -24.90230 152.32187 101 ft 0 kts 57°
2026-04-27 11:17 -24.90196 152.32245 101 ft 18 kts 49°
2026-04-27 11:18 -24.90119 152.32310 101 ft 0 kts 47°